TimeMDT,TemperatureF,Dew PointF,Humidity,Sea Level PressureIn,VisibilityMPH,Wind Direction,Wind SpeedMPH,Gust SpeedMPH,PrecipitationIn,Events,Conditions,WindDirDegrees,DateUTC
12:53 AM,48.9,37.9,66,29.98,10.0,ESE,9.2,-,N/A,,Clear,120,2013-10-01 06:53:00
1:53 AM,46.9,37.9,71,29.97,10.0,SE,6.9,-,N/A,,Clear,130,2013-10-01 07:53:00
2:53 AM,46.9,37.9,71,29.98,10.0,SE,6.9,-,N/A,,Clear,140,2013-10-01 08:53:00
3:53 AM,46.9,37.9,71,29.96,10.0,SE,9.2,-,N/A,,Partly Cloudy,130,2013-10-01 09:53:00
4:53 AM,46.9,37.9,71,29.95,10.0,SE,9.2,-,N/A,,Scattered Clouds,130,2013-10-01 10:53:00
5:53 AM,48.0,37.9,68,29.96,10.0,SE,8.1,-,N/A,,Mostly Cloudy,140,2013-10-01 11:53:00
6:53 AM,46.9,37.0,68,29.96,10.0,ESE,6.9,-,N/A,,Scattered Clouds,110,2013-10-01 12:53:00
7:53 AM,46.9,37.0,68,29.96,10.0,SE,6.9,-,N/A,,Scattered Clouds,140,2013-10-01 13:53:00
8:53 AM,48.9,37.0,64,29.97,10.0,SE,5.8,-,N/A,,Overcast,130,2013-10-01 14:53:00
9:53 AM,46.9,41.0,80,30.02,10.0,NNW,6.9,-,N/A,,Overcast,340,2013-10-01 15:53:00
10:53 AM,48.9,41.0,74,30.03,10.0,NNE,3.5,-,0.00,Rain,Light Rain,30,2013-10-01 16:53:00
11:53 AM,48.9,42.1,77,30.02,8.0,Calm,Calm,-,0.00,Rain,Light Rain,0,2013-10-01 17:53:00
12:53 PM,53.1,44.1,71,30.01,10.0,NNW,3.5,-,0.02,,Overcast,340,2013-10-01 18:53:00
1:53 PM,57.0,42.1,57,30.00,10.0,NNW,6.9,-,N/A,,Mostly Cloudy,340,2013-10-01 19:53:00
2:53 PM,59.0,37.0,44,29.98,10.0,NNW,9.2,-,N/A,,Clear,340,2013-10-01 20:53:00
3:53 PM,60.1,37.0,42,29.98,10.0,NNW,6.9,-,N/A,,Clear,330,2013-10-01 21:53:00
4:53 PM,61.0,37.9,42,29.97,10.0,NW,13.8,-,N/A,,Clear,320,2013-10-01 22:53:00
5:53 PM,61.0,37.9,42,29.98,10.0,NNW,11.5,-,N/A,,Clear,340,2013-10-01 23:53:00
6:53 PM,57.9,37.9,47,30.00,10.0,NNW,5.8,-,N/A,,Clear,340,2013-10-02 00:53:00
7:53 PM,54.0,37.0,53,30.01,10.0,NNW,6.9,-,N/A,,Clear,330,2013-10-02 01:53:00
8:53 PM,53.1,37.0,55,30.04,10.0,NW,5.8,-,N/A,,Partly Cloudy,310,2013-10-02 02:53:00
9:53 PM,50.0,36.0,59,30.09,10.0,NW,13.8,21.9,N/A,,Clear,310,2013-10-02 03:53:00
10:53 PM,48.0,36.0,63,30.10,10.0,West,6.9,-,N/A,,Clear,280,2013-10-02 04:53:00
11:53 PM,46.0,37.0,71,30.12,10.0,West,9.2,-,N/A,,Clear,280,2013-10-02 05:53:00